User: anonymous
Location: Niverville
(49.6028°N, 97.0419°W)
Time: 11:44:27
(UTC-05:00)
Language:

BREEZE-M DEB (TANK) - Orbit

View from above orbital plane
View from above orbital plane
View from above satellite
View from above satellite

Ground track
Ground track

The orbit data is extracted from the following two-line orbital elements,

1 33374U 08044B   14293.43316175  .00001899  00000-0  52631-3 0  7653
2 33374 049.4269 243.6392 5457221 223.2737 342.0812 04.84553228106803
Epoch (UTC): 20 October 2014 10:23:45
Eccentricity: 0.5457221
inclination: 49.4269°
perigee height: 323 km
apogee height: 16423 km
right ascension of ascending node: 243.6392°
argument of perigee: 223.2737°
revolutions per day: 4.84553228
mean anomaly at epoch: 342.0812°
orbit number at epoch: 10680

The dashed part of the orbit path shows where the satellite is in the earth's shadow,  

DLR